Date String (YYYY-MM-DD hh:mm:ss) UTC,Instrument flags,Ambient pressure (hPa),Sample flow (lpm),Bypass flow (lpm),Sample temperature (°C),Ambient temperature (°C),ASC tube jacket temperature (°C),LED temperature (°C),Box temperature (°C),Sample RH (%),Span deviation,Mass concentration (μg/m³),Mass concentration (μg/m³),Mass concentration (μg/m³)
DateTimeUTC,F1_M11,P_M11,Q1_M11,Q2_M11,T1_M11,T2_M11,T3_M11,T4_M11,T5_M11,U1_M11,ZSPAN_M11,X0_M11,X2_M11,X1_M11
2021-09-13 13:00:00,,0826.5,4.99,0.00,29.9,29.1,00.0,39.1,31.6,22.1,0000.4,0011.73,0005.16,0004.23
2021-09-13 13:01:00,,0826.5,5.01,0.00,29.9,29.1,00.0,39.1,31.6,22.1,0000.7,0012.14,0005.17,0004.23
2021-09-13 13:02:00,,0826.5,4.99,0.00,29.9,29.1,00.0,39.1,31.6,22.0,0000.4,0011.61,0005.10,0004.21
2021-09-13 13:03:00,,0826.5,5.01,0.00,29.9,29.1,00.0,39.1,31.6,22.0,0000.4,0011.19,0005.06,0004.18
2021-09-13 13:04:00,,0826.5,5.00,0.00,29.9,29.1,00.0,39.0,31.5,22.0,0000.1,0010.91,0005.07,0004.17
2021-09-13 13:05:00,,0826.5,4.99,0.00,29.9,29.1,00.0,39.0,31.5,22.1,0000.1,0010.95,0005.06,0004.14
2021-09-13 13:06:00,,0826.5,5.00,0.00,29.8,29.1,00.0,39.0,31.5,22.5,0000.3,0010.98,0005.05,0004.12
2021-09-13 13:07:00,,0826.5,5.01,0.00,29.8,29.1,00.0,39.0,31.6,22.6,-000.3,0010.78,0005.02,0004.12
2021-09-13 13:08:00,,0826.4,4.99,0.00,29.9,29.1,00.0,39.0,31.6,22.6,-001.1,0010.78,0005.02,0004.12
2021-09-13 13:09:00,,0826.5,5.01,0.00,29.9,29.2,00.0,39.0,31.6,22.6,-001.1,0010.78,0005.02,0004.12
2021-09-13 13:10:00,,0826.4,4.99,0.00,29.9,29.2,00.0,39.0,31.6,22.5,-001.2,0010.59,0005.03,0004.13
2021-09-13 13:11:00,,0826.4,5.00,0.00,29.9,29.2,00.0,39.0,31.7,22.4,-001.2,0010.33,0005.01,0004.16
2021-09-13 13:12:00,,0826.3,5.02,0.00,30.0,29.3,00.0,39.0,31.8,22.4,-001.4,0009.95,0005.06,0004.17
2021-09-13 13:13:00,,0826.4,5.00,0.00,30.0,29.3,00.0,39.1,31.7,22.4,-001.0,0010.01,0005.11,0004.18
2021-09-13 13:14:00,,0826.5,4.99,0.00,30.0,29.3,00.0,39.1,31.8,22.3,-000.6,0010.25,0005.13,0004.20
2021-09-13 13:15:00,,0826.7,5.00,0.00,30.0,29.4,00.0,39.1,31.8,22.3,-000.5,0010.71,0005.19,0004.22
2021-09-13 13:16:00,,0826.7,5.01,0.00,30.1,29.4,00.0,39.1,31.9,23.4,-000.2,0010.88,0005.17,0004.23
2021-09-13 13:17:00,,0826.7,5.00,0.00,30.1,29.4,00.0,39.1,31.8,24.0,-000.3,0011.67,0005.08,0004.20
2021-09-13 13:18:00,,0826.7,4.99,0.00,30.0,29.3,00.0,39.1,31.8,22.8,0000.9,0011.52,0005.05,0004.18
2021-09-13 13:19:00,,0826.6,5.00,0.00,30.1,29.3,00.0,39.1,31.8,22.8,0000.0,0011.37,0005.06,0004.18
2021-09-13 13:20:00,,0826.5,5.00,0.00,30.1,29.3,00.0,39.1,31.8,22.7,0000.0,0011.36,0005.04,0004.16
2021-09-13 13:21:00,,0826.4,5.00,0.00,30.1,29.4,00.0,39.2,31.9,22.3,0000.0,0011.35,0005.04,0004.15
2021-09-13 13:22:00,,0826.2,5.01,0.00,30.1,29.4,00.0,39.2,31.9,22.3,0000.0,0011.36,0005.08,0004.15
2021-09-13 13:23:00,,0826.4,4.99,0.00,30.1,29.4,00.0,39.2,31.9,22.2,0000.0,0011.22,0005.06,0004.15
2021-09-13 13:24:00,,0826.5,5.00,0.00,30.2,29.4,00.0,39.2,31.9,22.2,0000.0,0011.03,0005.00,0004.14
2021-09-13 13:25:00,,0826.5,5.01,0.00,30.2,29.4,00.0,39.2,31.9,23.9,0000.0,0010.87,0004.97,0004.11
2021-09-13 13:26:00,,0826.7,4.99,0.00,30.2,29.4,00.0,39.2,31.9,25.0,0000.0,0010.43,0004.91,0004.07
2021-09-13 13:27:00,,0826.7,5.01,0.00,30.2,29.4,00.0,39.2,31.9,25.0,0000.0,0010.10,0004.88,0004.04
2021-09-13 13:28:00,,0826.7,5.00,0.00,30.2,29.4,00.0,39.2,31.9,24.8,0000.0,0009.71,0004.93,0004.05
2021-09-13 13:29:00,,0826.6,4.99,0.00,30.2,29.4,00.0,39.3,31.9,23.1,0000.0,0009.91,0004.97,0004.06
2021-09-13 13:30:00,,0826.5,5.00,0.00,30.2,29.4,00.0,39.3,31.8,22.8,0000.0,0010.08,0004.97,0004.05
2021-09-13 13:31:00,,0826.6,5.01,0.00,30.2,29.4,00.0,39.3,31.9,23.8,0000.0,0010.39,0005.01,0004.04
2021-09-13 13:32:00,,0826.5,4.99,0.00,30.2,29.4,00.0,39.3,31.9,23.6,0000.0,0010.52,0005.00,0004.02
2021-09-13 13:33:00,,0826.5,5.00,0.00,30.2,29.4,00.0,39.3,31.9,22.4,0000.0,0010.80,0004.98,0004.01
2021-09-13 13:34:00,,0826.5,5.00,0.00,30.2,29.4,00.0,39.3,31.9,21.9,0000.0,0010.92,0004.99,0003.99
2021-09-13 13:35:00,,0826.5,5.00,0.00,30.2,29.0,00.0,39.3,31.8,21.9,0000.0,0011.43,0005.04,0004.00
2021-09-13 13:36:00,,0826.5,5.00,0.00,30.1,26.9,00.0,39.2,31.2,22.0,0000.0,0011.52,0005.07,0004.03
2021-09-13 13:37:00,,0826.5,4.98,0.00,29.8,25.6,00.0,39.2,30.9,21.7,0000.0,0012.10,0005.06,0004.06
2021-09-13 13:38:00,,0826.6,5.02,0.00,29.7,25.7,00.0,39.1,30.9,21.6,0000.1,0012.19,0005.08,0004.07
2021-09-13 13:39:00,,0826.6,5.00,0.00,29.6,26.2,00.0,39.0,31.0,21.7,0000.2,0011.78,0005.07,0004.06
2021-09-13 13:40:00,,0826.7,5.00,0.00,29.6,26.7,00.0,39.0,31.0,21.7,0000.2,0011.39,0005.03,0004.05
2021-09-13 13:41:00,,0826.7,4.99,0.00,29.6,27.2,00.0,38.9,31.1,22.2,0000.2,0011.28,0005.02,0004.03
2021-09-13 13:42:00,,0826.7,5.00,0.00,29.6,27.5,00.0,38.9,31.2,23.6,0000.3,0011.17,0005.00,0004.03
2021-09-13 13:43:00,,0826.7,4.99,0.00,29.6,27.8,00.0,38.9,31.3,24.7,0000.4,0010.96,0004.96,0004.04
2021-09-13 13:44:00,,0826.6,5.00,0.00,29.6,28.0,00.0,38.8,31.3,25.0,0000.0,0010.51,0004.93,0004.03
2021-09-13 13:45:00,,0826.5,5.01,0.00,29.6,28.2,00.0,38.8,31.3,24.1,0000.3,0010.44,0004.90,0004.03
2021-09-13 13:46:00,,0826.6,4.99,0.00,29.7,28.4,00.0,38.8,31.4,24.3,0000.2,0010.17,0004.90,0004.03
2021-09-13 13:47:00,,0826.5,5.01,0.00,29.7,28.5,00.0,38.8,31.4,24.7,0000.0,0010.36,0004.91,0004.00
2021-09-13 13:48:00,,0826.5,4.99,0.00,29.7,28.6,00.0,38.8,31.4,24.6,0000.0,0010.13,0004.93,0003.98
2021-09-13 13:49:00,,0826.5,5.00,0.00,29.7,28.7,00.0,38.8,31.4,23.9,0000.0,0010.28,0005.00,0004.00
2021-09-13 13:50:00,,0826.5,5.01,0.00,29.8,28.7,00.0,38.8,31.5,22.5,0000.0,0010.42,0005.04,0004.01
2021-09-13 13:51:00,,0826.5,4.99,0.00,29.8,28.8,00.0,38.9,31.5,22.3,0000.0,0010.49,0005.02,0004.01
2021-09-13 13:52:00,,0826.6,5.01,0.00,29.8,28.9,00.0,38.9,31.6,22.3,0000.0,0011.06,0005.01,0004.01
2021-09-13 13:53:00,,0826.5,4.99,0.00,29.8,28.9,00.0,38.9,31.6,24.5,0000.0,0011.23,0005.05,0004.02
2021-09-13 13:54:00,,0826.6,5.00,0.00,29.9,29.0,00.0,38.9,31.7,24.7,0000.0,0011.46,0005.06,0004.02
2021-09-13 13:55:00,,0826.7,4.99,0.00,29.9,29.0,00.0,38.9,31.7,24.7,-000.0,0011.69,0005.06,0004.02
2021-09-13 13:56:00,,0826.8,5.00,0.00,29.9,29.0,00.0,38.9,31.7,24.8,-000.0,0011.83,0005.07,0004.02
2021-09-13 13:57:00,,0826.8,5.01,0.00,29.9,29.1,00.0,39.0,31.7,24.9,0000.0,0012.36,0005.09,0004.00
2021-09-13 13:58:00,,0826.9,4.99,0.00,30.0,29.1,00.0,39.0,31.7,24.8,-000.1,0012.61,0005.13,0004.01
2021-09-13 13:59:00,,0827.0,5.00,0.00,30.0,29.1,00.0,39.0,31.8,24.8,0000.0,0012.22,0005.14,0004.02
